Location: SE Lincoln, NE
(40.7805°N, 96.6275°W)
Time: 03:44:01
(UTC-05:00)

CZ-2C R/B - Pass Details

Date: 15 May 2021
Orbit: 390 x 580 km, 35.0° (Epoch: 23 June)

Event Time Altitude Azimuth Distance (km) Brightness Sun altitude
Rises 21:37:16 0° 207° (SSW) 2,622 4.7 -10.5°
Reaches altitude 10° 21:41:20 10° 167° (SSE) 1,678 3.3 -11.1°
Enters shadow 21:41:20 10° 167° (SSE) 1,677 3.3 -11.1°
